Location: Exeidioux
(45.6312°N, 1.6819°E)
Time: 08:07:12
(UTC+00:00)

Okean 3 - Pass Details

Date: 03 March 2021
Orbit: 577 x 600 km, 82.5° (Epoch: 11 April)

Event Time Altitude Azimuth Distance (km) Brightness Sun altitude
Rises 20:13:26 0° 346° (NNW) 2,832 7.4 -26.7°
Reaches altitude 10° 20:15:41 10° 341° (NNW) 1,930 6.5 -27.1°
Enters shadow 20:19:38 48° 275° (W) 776 4.3 -27.8°
